SCOUT B R/B, 3341

Orbit data source: Space-Track

SCOUT B R/B, 3341 is space debris in LEO originally from a launch on Thu, 08 Aug 1968 UTC launched from the Air Force Western Test Range (AFWTR). Debris objects in space refer to the collection of defunct objects orbiting the Earth. Examples of debris include non-operational satellites, rocket bodies, and fragments generated from explosions, collisions, or faulty payload assembly.

Loading next visibility...
SCOUT B R/B details
Identifier
3341, 1968-066C
Orbit
LEO
Last TLE update18 hours ago
Origin
Flag of USNASA LaRC (US)
ManufacturerUTC
MissionSpacecraft
Bus & MotorFW4, Unknown motor
Mass47 kg wet, 47 kg dry
Launch date (UTC)
1968-08-08 (56 years ago)
Launch vehicleUnknown
Launch site
Air Force Western Test Range (AFWTR)
Object type
Payload
Rocket body
Debris
Shape & HBRCyl, 1.5 m
Radar Cross Section0.687 m², Medium (>0.1 m² and < 1m²)

Expand to show TLE details & history

TLE from 18 hours ago
0 SCOUT B R/B
1 03341U 68066C   24355.79297208  .00000695  00000-0  73591-3 0  9998
2 03341  80.6614 109.3642 1117919 242.8969 105.3844 12.25830159496923
Epoch: 2024-12-20T19:01Z
Definitive object data (Epoch: 2024-12-20T19:01:52.787Z)
Latitude-0°
Longitude94.04086°
Altitude1,893.294 km
Speed6.8 km/s
True Right ascension07h 17m 27s
True Declination0° 00' 00"
Sunlit
Object was in full shadow at TLE epoch
Visualization TLE readout
Latitude-21.32552°
Longitude89.81791°
Altitude1,587.022 km
Speed7.07 km/s
Apparent Right ascension04h 24m 26s
Apparent Declination-43° 52' 31"
Sunlit
Object is in full shadow
Visualization observer readout
Local Sidereal Time11:34:04
Azimuth240.246° WSW
Elevation-37.601°
Doppler factor1
Orbital elements
Apogee altitude2,452.592 km
Perigee altitude676.713 km
Semi-major axis7,942.79 km
Eccentricity0.1117919
Inclination80.6614°
RAAN109.3642°
Arg. of periapsis242.8969°
True anomaly117.2096°
Mean anomaly105.3844°
Eccentric anomaly111.35004°
Mean motion3.06608 °/min
BSTAR0.00073591
Orbital period117.41 mins
Loading maneuver chart data...
Loading historical data...
Loading historical data...
Loading historical data...
Loading historical data...
Loading historical data...
Loading historical data...
Loading historical data...

SCOUT B R/B Visibility forecast

Observer location: undefined°, undefined

Span
Click to sort rows by Start time (UTC) header in descending order
Start Az.
Max El. time (UTC)
Max El. Az.
Max El.
End time (UTC)
End Az.
12 mins2024-12-21 17:17:15.867Z12.506° NNE2024-12-21 17:24:15.867Z52.028° ENE18.02°2024-12-21 17:29:15.867Z86.111° E
18 mins2024-12-21 19:15:15.867Z352.223° N2024-12-21 19:25:15.867Z61.987° ENE44.219°2024-12-21 19:33:15.867Z163.99° S
12 mins2024-12-21 21:16:15.867Z324.386° NNW2024-12-21 21:22:15.867Z286.685° WNW21.654°2024-12-21 21:28:15.867Z239.689° WSW
17 mins2024-12-22 06:26:15.867Z114.742° SE2024-12-22 06:33:15.867Z77.6° E22.448°2024-12-22 06:43:15.867Z30.428° NE
25 mins2024-12-22 08:19:15.867Z182.041° SSW2024-12-22 08:30:15.867Z105.699° ESE44.836°2024-12-22 08:44:15.867Z11.594° NNE
21 mins2024-12-22 10:21:15.867Z244.985° WSW2024-12-22 10:31:15.867Z301.792° NW28.13°2024-12-22 10:42:15.867Z356.767° N
|